CW0238 Weather Reports


Display with metric or nautical units.
time (UTC)temp
F
wind
direction
speed
MPH
gust
MPH
rain 1hr
in
rain 24hr
in
rain mn
in
humidity
%
barometer
mb
20260509061232 62 210 0.0 1.0 0.00 0.00 0.00 59 1008.6
20260509060727 61 211 0.0 0.0 0.00 0.00 0.00 60 1008.6
20260509060226 61 211 0.0 0.0 0.00 0.00 0.00 60 1008.7
20260509055726 61 211 0.0 0.0 0.00 0.00 0.00 61 1008.6
20260509055451 61 211 0.0 0.0 0.00 0.00 0.00 61 1008.6
20260509054724 61 211 0.0 0.0 0.00 0.00 0.00 62 1008.6
20260509054220 61 211 0.0 0.0 0.00 0.00 0.00 59 1008.6
20260509053719 61 211 0.0 0.0 0.00 0.00 0.00 61 1008.6
20260509053221 61 211 0.0 0.0 0.00 0.00 0.00 60 1008.6
20260509052716 62 211 0.0 0.0 0.00 0.00 0.00 59 1008.5
20260509052441 62 211 0.0 0.0 0.00 0.00 0.00 58 1008.5
20260509051716 62 211 0.0 0.0 0.00 0.00 0.00 59 1008.5
20260509051214 61 211 0.0 0.0 0.00 0.00 0.00 61 1008.5
20260509050716 61 211 0.0 0.0 0.00 0.00 0.00 62 1008.5
20260509050215 61 211 0.0 0.0 0.00 0.00 0.00 64 1008.5
20260509045715 61 211 0.0 0.0 0.00 0.00 0.00 64 1008.6
20260509045211 60 211 0.0 0.0 0.00 0.00 0.00 64 1008.6
20260509044709 60 211 0.0 0.0 0.00 0.00 0.00 65 1008.6
20260509044212 60 211 0.0 0.0 0.00 0.00 0.00 64 1008.6
20260509043710 60 211 0.0 0.0 0.00 0.00 0.00 65 1008.6
20260509043212 60 211 0.0 0.0 0.00 0.00 0.00 65 1008.6
20260509042703 60 211 0.0 0.0 0.00 0.00 0.00 65 1008.6
20260509042201 60 211 0.0 0.0 0.00 0.00 0.00 64 1008.6
20260509041706 60 211 0.0 0.0 0.00 0.00 0.00 63 1008.7
20260509041157 60 211 0.0 0.0 0.00 0.00 0.00 61 1008.8
20260509040929 60 211 0.0 0.0 0.00 0.00 0.00 62 1008.8
20260509040157 61 211 0.0 0.0 0.00 0.00 0.00 62 1008.7
20260509035654 61 211 0.0 0.0 0.00 0.00 0.00 61 1008.8
20260509035154 61 211 0.0 0.0 0.00 0.00 0.00 61 1008.8
20260509034654 61 211 0.0 0.0 0.00 0.00 0.00 63 1008.8
20260509034147 61 211 0.0 0.0 0.00 0.00 0.00 62 1008.8
20260509033648 61 211 0.0 0.0 0.00 0.00 0.00 59 1008.9
20260509033147 61 211 0.0 0.0 0.00 0.00 0.00 61 1009.0
20260509032919 61 211 0.0 0.0 0.00 0.00 0.00 59 1009.0
20260509032147 61 211 0.0 0.0 0.00 0.00 0.00 59 1009.0
20260509031641 61 211 0.0 0.0 0.00 0.00 0.00 58 1008.9
20260509031409 62 211 0.0 0.0 0.00 0.00 0.00 58 1009.0
20260509030641 61 211 0.0 0.0 0.00 0.00 0.00 59 1009.0
20260509030135 61 211 0.0 0.0 0.00 0.00 0.00 59 1009.0
20260509025634 61 211 0.0 0.0 0.00 0.00 0.00 59 1009.1
20260509025133 61 211 0.0 0.0 0.00 0.00 0.00 62 1009.1
20260509024631 61 211 0.0 0.0 0.00 0.00 0.00 60 1009.2
20260509024130 62 211 0.0 0.0 0.00 0.00 0.00 62 1009.3
20260509023850 62 211 0.0 0.0 0.00 0.00 0.00 61 1009.4
20260509023134 61 211 0.0 0.0 0.00 0.00 0.00 62 1009.3
20260509022631 61 211 0.0 0.0 0.00 0.00 0.00 61 1009.4
20260509022125 61 211 0.0 0.0 0.00 0.00 0.00 59 1009.6
20260509021624 61 211 0.0 0.0 0.00 0.00 0.00 60 1009.6
20260509021125 61 211 0.0 0.0 0.00 0.00 0.00 60 1009.5
20260509020619 61 211 0.0 0.0 0.00 0.00 0.00 60 1009.4
20260509020120 61 211 0.0 0.0 0.00 0.00 0.00 60 1009.4
20260509015619 61 211 0.0 0.0 0.00 0.00 0.00 59 1009.4
20260509015113 61 211 0.0 0.0 0.00 0.00 0.00 59 1009.4
20260509014612 62 211 0.0 0.0 0.00 0.00 0.00 61 1009.4
20260509014113 62 211 0.0 0.0 0.00 0.00 0.00 61 1009.3
20260509013607 62 211 0.0 0.0 0.00 0.00 0.00 64 1009.3
20260509013326 63 211 0.0 0.0 0.00 0.00 0.00 58 1009.4
20260509012607 63 211 0.0 0.0 0.00 0.00 0.00 56 1009.3
20260509012105 62 211 0.0 0.0 0.00 0.00 0.00 56 1009.3
20260509011605 62 211 0.0 0.0 0.00 0.00 0.00 55 1009.5
20260509011106 63 211 0.0 0.0 0.00 0.00 0.00 55 1009.4
20260509010606 63 211 0.0 0.0 0.00 0.00 0.00 54 1009.4
20260509010105 63 211 0.0 0.0 0.00 0.00 0.00 53 1009.3
20260509005605 63 211 0.0 0.0 0.00 0.00 0.00 53 1009.4
20260509005327 64 211 0.0 0.0 0.00 0.00 0.00 53 1009.4
20260509004821 65 211 0.0 0.0 0.00 0.00 0.00 55 1009.4
20260509004056 65 211 0.0 0.0 0.00 0.00 0.00 53 1009.4
20260509003558 66 211 0.0 0.0 0.00 0.00 0.00 51 1009.4
20260509003049 66 211 0.0 1.0 0.00 0.00 0.00 48 1009.4
20260509002548 67 211 0.0 1.0 0.00 0.00 0.00 46 1009.5
20260509002052 68 211 0.0 0.0 0.00 0.00 0.00 45 1009.4
20260509001548 68 211 0.0 1.0 0.00 0.00 0.00 45 1009.4
20260509001047 68 211 0.0 1.0 0.00 0.00 0.00 44 1009.4
20260509000547 68 211 0.0 1.0 0.00 0.00 0.00 44 1009.4
20260509000048 69 211 0.0 1.0 0.00 0.00 0.00 43 1009.4
20260508235550 69 211 0.0 2.0 0.00 0.00 0.00 43 1009.5
20260508235041 69 211 0.0 2.0 0.00 0.00 0.00 42 1009.5
20260508234808 70 161 0.0 2.0 0.00 0.00 0.00 42 1009.6
20260508234044 70 136 0.0 1.0 0.00 0.00 0.00 43 1009.6
20260508233535 70 136 1.0 4.0 0.00 0.00 0.00 41 1009.6
20260508233036 70 135 1.0 4.0 0.00 0.00 0.00 40 1009.5
20260508232538 71 221 1.0 3.0 0.00 0.00 0.00 40 1009.5
20260508232034 71 173 1.0 3.0 0.00 0.00 0.00 41 1009.6
20260508231533 71 173 1.0 4.0 0.00 0.00 0.00 41 1009.6
20260508231034 71 173 1.0 4.0 0.00 0.00 0.00 39 1009.6
20260508230533 71 142 1.0 4.0 0.00 0.00 0.00 39 1009.6
20260508230035 71 208 1.0 4.0 0.00 0.00 0.00 41 1009.6
20260508225528 71 170 1.0 6.0 0.00 0.00 0.00 40 1009.7
20260508225026 71 169 1.0 6.0 0.00 0.00 0.00 39 1009.7
20260508224530 71 195 1.0 4.0 0.00 0.00 0.00 40 1010.0
20260508224024 71 207 2.0 4.0 0.00 0.00 0.00 39 1009.8
20260508223523 72 138 2.0 6.0 0.00 0.00 0.00 40 1010.0
20260508223025 72 207 2.0 6.0 0.00 0.00 0.00 39 1010.0
20260508222746 72 231 1.0 5.0 0.00 0.00 0.00 40 1009.8
20260508222023 72 177 1.0 3.0 0.00 0.00 0.00 42 1009.7
20260508221521 71 206 1.0 3.0 0.00 0.00 0.00 41 1009.7
20260508220740 73 180 1.0 4.0 0.00 0.00 0.00 39 1009.5
20260508220016 73 158 1.0 4.0 0.00 0.00 0.00 39 1009.5
20260508215517 73 242 1.0 4.0 0.00 0.00 0.00 38 1009.4
20260508215016 73 130 1.0 8.0 0.00 0.00 0.00 38 1009.4
20260508214517 74 259 1.0 8.0 0.00 0.00 0.00 38 1009.4
20260508214012 73 138 2.0 4.0 0.00 0.00 0.00 38 1009.5
20260508213510 73 157 2.0 9.0 0.00 0.00 0.00 37 1009.5
20260508213011 74 190 2.0 9.0 0.00 0.00 0.00 38 1009.6
20260508212509 74 244 1.0 8.0 0.00 0.00 0.00 38 1009.7
20260508212008 74 264 2.0 6.0 0.00 0.00 0.00 38 1009.7
20260508211509 73 146 2.0 7.0 0.00 0.00 0.00 38 1009.7
20260508210509 75 125 1.0 6.0 0.00 0.00 0.00 36 1010.0
20260508210004 73 225 2.0 5.0 0.00 0.00 0.00 39 1010.2
20260508205502 74 213 1.0 7.0 0.00 0.00 0.00 36 1010.2
20260508205229 74 274 1.0 7.0 0.00 0.00 0.00 37 1010.1
20260508204457 73 103 1.0 6.0 0.00 0.00 0.00 36 1010.3
20260508203956 73 181 1.0 5.0 0.00 0.00 0.00 37 1010.4
20260508203457 74 149 1.0 4.0 0.00 0.00 0.00 39 1010.5
20260508202952 74 173 1.0 8.0 0.00 0.00 0.00 37 1010.5
20260508202450 74 215 2.0 8.0 0.00 0.00 0.00 36 1010.7
20260508201949 74 161 2.0 5.0 0.00 0.00 0.00 37 1010.5
20260508201447 74 148 1.0 7.0 0.00 0.00 0.00 37 1010.6
20260508200947 74 191 1.0 7.0 0.00 0.00 0.00 36 1010.8
20260508200446 74 161 1.0 3.0 0.00 0.00 0.00 35 1011.0
20260508195945 74 175 1.0 4.0 0.00 0.00 0.00 38 1011.1
20260508195445 74 155 1.0 5.0 0.00 0.00 0.00 39 1011.1
20260508194943 74 153 2.0 6.0 0.00 0.00 0.00 36 1011.2
20260508193943 75 275 1.0 7.0 0.00 0.00 0.00 37 1011.3
20260508193438 75 344 0.0 7.0 0.00 0.00 0.00 40 1011.4
20260508192936 74 217 1.0 6.0 0.00 0.00 0.00 41 1011.4
20260508192437 74 192 2.0 6.0 0.00 0.00 0.00 36 1011.6
20260508191935 73 164 2.0 6.0 0.00 0.00 0.00 36 1011.8
20260508191432 74 27 1.0 6.0 0.00 0.00 0.00 39 1011.9
20260508190932 73 132 1.0 6.0 0.00 0.00 0.00 36 1011.9
20260508190431 74 153 2.0 4.0 0.00 0.00 0.00 35 1012.0
20260508185928 74 247 2.0 7.0 0.00 0.00 0.00 37 1012.0
20260508185425 74 287 1.0 7.0 0.00 0.00 0.00 37 1011.9
20260508184923 73 315 1.0 6.0 0.00 0.00 0.00 39 1011.9
20260508184422 73 315 1.0 5.0 0.00 0.00 0.00 39 1011.9
20260508183921 73 315 2.0 6.0 0.00 0.00 0.00 37 1011.9
20260508183419 74 231 1.0 6.0 0.00 0.00 0.00 40 1011.8
20260508183147 73 105 1.0 5.0 0.00 0.00 0.00 38 1011.7
20260508182418 73 162 2.0 5.0 0.00 0.00 0.00 38 1011.7
20260508181919 74 159 1.0 4.0 0.00 0.00 0.00 36 1011.7
20260508181414 73 203 1.0 9.0 0.00 0.00 0.00 38 1011.8
20260508180912 72 223 1.0 9.0 0.00 0.00 0.00 36 1011.9
20260508180411 72 161 0.0 4.0 0.00 0.00 0.00 38 1012.0
20260508175905 72 162 1.0 6.0 0.00 0.00 0.00 40 1012.1
20260508175404 71 203 1.0 6.0 0.00 0.00 0.00 35 1012.2
20260508175127 72 192 1.0 5.0 0.00 0.00 0.00 36 1012.5
20260508174623 72 312 1.0 5.0 0.00 0.00 0.00 41 1012.6
20260508173859 72 196 1.0 5.0 0.00 0.00 0.00 37 1012.8
20260508173357 72 9 2.0 8.0 0.00 0.00 0.00 38 1012.9
20260508172852 71 225 2.0 8.0 0.00 0.00 0.00 37 1012.9
20260508172350 72 142 1.0 5.0 0.00 0.00 0.00 38 1013.1
20260508172116 72 134 1.0 8.0 0.00 0.00 0.00 38 1013.0
20260508171348 72 175 1.0 8.0 0.00 0.00 0.00 41 1013.3
20260508170852 71 226 2.0 9.0 0.00 0.00 0.00 40 1013.3
20260508170344 72 150 1.0 9.0 0.00 0.00 0.00 36 1013.4
20260508165844 71 235 1.0 3.0 0.00 0.00 0.00 40 1013.5
20260508165346 71 217 1.0 4.0 0.00 0.00 0.00 39 1013.6
20260508164838 71 96 2.0 4.0 0.00 0.00 0.00 39 1013.7
20260508164558 71 9 2.0 5.0 0.00 0.00 0.00 40 1013.8
20260508163837 70 161 2.0 5.0 0.00 0.00 0.00 40 1014.0
20260508163335 70 190 1.0 5.0 0.00 0.00 0.00 39 1014.1
20260508163056 70 133 1.0 3.0 0.00 0.00 0.00 43 1014.1
20260508162334 70 235 1.0 5.0 0.00 0.00 0.00 42 1014.1
20260508161832 69 242 1.0 5.0 0.00 0.00 0.00 42 1014.1
20260508161335 69 244 2.0 7.0 0.00 0.00 0.00 42 1014.4
20260508161102 70 202 1.0 7.0 0.00 0.00 0.00 42 1014.4
20260508160333 69 332 1.0 4.0 0.00 0.00 0.00 42 1014.5
20260508155832 69 224 1.0 4.0 0.00 0.00 0.00 44 1014.6
20260508155604 68 112 1.0 6.0 0.00 0.00 0.00 44 1014.8
20260508154830 68 256 1.0 9.0 0.00 0.00 0.00 42 1014.7
20260508154328 68 273 2.0 9.0 0.00 0.00 0.00 44 1014.9
20260508153829 67 302 1.0 10.0 0.00 0.00 0.00 45 1015.0
20260508153328 67 218 2.0 10.0 0.00 0.00 0.00 47 1015.0
20260508152829 66 57 1.0 6.0 0.00 0.00 0.00 47 1015.1
20260508152327 66 284 1.0 6.0 0.00 0.00 0.00 47 1015.1
20260508152100 65 244 1.0 6.0 0.00 0.00 0.00 49 1015.1
20260508151327 65 320 1.0 6.0 0.00 0.00 0.00 48 1015.3
20260508150826 65 97 1.0 7.0 0.00 0.00 0.00 48 1015.4
20260508150327 64 209 1.0 7.0 0.00 0.00 0.00 49 1015.5
20260508145823 64 90 1.0 4.0 0.00 0.00 0.00 50 1015.5
20260508145322 64 269 1.0 4.0 0.00 0.00 0.00 51 1015.6
20260508144822 63 355 1.0 4.0 0.00 0.00 0.00 51 1015.5
20260508144317 63 37 2.0 7.0 0.00 0.00 0.00 49 1015.6
20260508143815 63 188 1.0 7.0 0.00 0.00 0.00 50 1015.6
20260508143315 62 319 1.0 5.0 0.00 0.00 0.00 51 1015.7
20260508142809 62 253 1.0 5.0 0.00 0.00 0.00 53 1015.7
20260508142536 62 286 0.0 5.0 0.00 0.00 0.00 52 1015.7
20260508141809 61 333 1.0 6.0 0.00 0.00 0.00 52 1015.8
20260508141307 61 281 1.0 6.0 0.00 0.00 0.00 52 1015.6
20260508140810 61 142 1.0 4.0 0.00 0.00 0.00 53 1015.7
20260508140305 60 287 0.0 4.0 0.00 0.00 0.00 54 1015.7
20260508135805 60 223 1.0 8.0 0.00 0.00 0.00 54 1015.7
20260508135306 60 265 1.0 8.0 0.00 0.00 0.00 53 1015.7
20260508135022 60 215 0.0 4.0 0.00 0.00 0.00 55 1015.9
20260508134258 59 243 0.0 4.0 0.00 0.00 0.00 56 1015.9
20260508134027 59 238 0.0 4.0 0.00 0.00 0.00 54 1015.8
20260508133259 59 323 0.0 3.0 0.00 0.00 0.00 57 1015.8
20260508132802 58 112 0.0 1.0 0.00 0.00 0.00 57 1015.8
20260508132257 58 112 0.0 1.0 0.00 0.00 0.00 58 1015.8
20260508131755 57 112 0.0 6.0 0.00 0.00 0.00 57 1015.6
20260508131257 57 279 0.0 6.0 0.00 0.00 0.00 58 1015.6
20260508130750 56 227 0.0 2.0 0.00 0.00 0.00 61 1015.5
20260508130248 56 227 0.0 2.0 0.00 0.00 0.00 63 1015.6
20260508125749 54 213 0.0 0.0 0.00 0.00 0.00 69 1015.5
20260508125245 53 213 0.0 0.0 0.00 0.00 0.00 74 1015.5
20260508125013 52 213 0.0 0.0 0.00 0.00 0.00 81 1015.6
20260508124246 51 213 0.0 1.0 0.00 0.00 0.00 84 1015.6
20260508124009 50 213 0.0 1.0 0.00 0.00 0.00 85 1015.6
20260508123248 49 213 0.0 0.0 0.00 0.00 0.00 87 1015.6
20260508123001 48 213 0.0 0.0 0.00 0.00 0.00 87 1015.7
20260508122238 47 213 0.0 0.0 0.00 0.00 0.00 87 1015.7
20260508121742 47 213 0.0 0.0 0.00 0.00 0.00 86 1015.6
20260508121234 46 213 0.0 0.0 0.00 0.00 0.00 87 1015.6
20260508120732 45 213 0.0 0.0 0.00 0.00 0.00 87 1015.6
20260508120236 45 213 0.0 0.0 0.00 0.00 0.00 87 1015.6
20260508115731 44 213 0.0 0.0 0.00 0.00 0.00 88 1015.6
20260508115505 43 213 0.0 0.0 0.00 0.00 0.00 88 1015.6
20260508114730 43 213 0.0 0.0 0.00 0.00 0.00 89 1015.6
20260508114228 42 213 0.0 0.0 0.00 0.00 0.00 90 1015.5
20260508113729 42 213 0.0 0.0 0.00 0.00 0.00 90 1015.5
20260508113223 42 213 0.0 0.0 0.00 0.00 0.00 90 1015.5
20260508112722 42 213 0.0 0.0 0.00 0.00 0.00 91 1015.4
20260508112226 41 213 0.0 0.0 0.00 0.00 0.00 91 1015.4
20260508111723 41 213 0.0 0.0 0.00 0.00 0.00 91 1015.4
20260508111223 41 213 0.0 0.0 0.00 0.00 0.00 91 1015.2
20260508110720 41 213 0.0 0.0 0.00 0.00 0.00 91 1015.1
20260508110444 41 213 0.0 0.0 0.00 0.00 0.00 92 1015.1
20260508105717 41 213 0.0 0.0 0.00 0.00 0.00 92 1015.1
20260508105215 41 213 0.0 0.0 0.00 0.00 0.00 92 1015.1
20260508104714 41 213 0.0 0.0 0.00 0.00 0.00 92 1015.1
20260508104212 40 213 0.0 0.0 0.00 0.00 0.00 92 1015.0
20260508103711 40 213 0.0 0.0 0.00 0.00 0.00 92 1015.0
20260508103206 40 213 0.0 0.0 0.00 0.00 0.00 92 1015.0
20260508102926 40 213 0.0 0.0 0.00 0.00 0.00 92 1015.0
20260508102205 40 213 0.0 0.0 0.00 0.00 0.00 92 1014.9
20260508101705 40 213 0.0 0.0 0.00 0.00 0.00 92 1014.9
20260508101425 40 213 0.0 0.0 0.00 0.00 0.00 92 1014.9
20260508100700 40 213 0.0 0.0 0.00 0.00 0.00 92 1014.9
20260508100200 40 213 0.0 0.0 0.00 0.00 0.00 92 1015.0
20260508095925 40 213 0.0 0.0 0.00 0.00 0.00 92 1015.0
20260508095156 40 213 0.0 0.0 0.00 0.00 0.00 92 1015.0
20260508094655 40 213 0.0 0.0 0.00 0.00 0.00 92 1015.1
20260508094419 40 213 0.0 0.0 0.00 0.00 0.00 92 1015.1
20260508093657 40 213 0.0 0.0 0.00 0.00 0.00 92 1015.1
20260508093154 40 213 0.0 0.0 0.00 0.00 0.00 92 1015.1
20260508092653 40 213 0.0 0.0 0.00 0.00 0.00 92 1015.1
20260508092415 40 213 0.0 0.0 0.00 0.00 0.00 92 1015.1
20260508091649 40 213 0.0 0.0 0.00 0.00 0.00 91 1015.1
20260508091406 40 213 0.0 0.0 0.00 0.00 0.00 91 1015.1
20260508090642 40 213 0.0 0.0 0.00 0.00 0.00 91 1015.3
20260508090143 40 213 0.0 0.0 0.00 0.00 0.00 91 1015.1
20260508085642 40 213 0.0 0.0 0.00 0.00 0.00 91 1015.1
20260508085140 40 213 0.0 0.0 0.00 0.00 0.00 91 1015.1
20260508084639 40 213 0.0 0.0 0.00 0.00 0.00 91 1015.1
20260508084133 40 213 0.0 0.0 0.00 0.00 0.00 91 1015.1
20260508083636 40 213 0.0 0.0 0.00 0.00 0.00 91 1015.1
20260508083135 40 213 0.0 0.0 0.00 0.00 0.00 91 1015.1
20260508082629 40 213 0.0 0.0 0.00 0.00 0.00 91 1015.1
20260508082133 40 213 0.0 0.0 0.00 0.00 0.00 91 1015.1
20260508081628 41 213 0.0 0.0 0.00 0.00 0.00 91 1015.1
20260508081127 40 213 0.0 0.0 0.00 0.00 0.00 91 1015.1
20260508080631 40 213 0.0 0.0 0.00 0.00 0.00 91 1015.1
20260508080121 40 213 0.0 0.0 0.00 0.00 0.00 91 1015.1
20260508075621 41 213 0.0 0.0 0.00 0.00 0.00 90 1015.2
20260508075125 41 213 0.0 0.0 0.00 0.00 0.00 90 1015.2
20260508074843 41 213 0.0 0.0 0.00 0.00 0.00 90 1015.1
20260508074118 41 213 0.0 0.0 0.00 0.00 0.00 90 1015.1
20260508073839 41 213 0.0 0.0 0.00 0.00 0.00 90 1015.1
20260508073117 41 213 0.0 0.0 0.00 0.00 0.00 90 1015.1
20260508072616 41 213 0.0 0.0 0.00 0.00 0.00 89 1015.1
20260508072346 41 213 0.0 0.0 0.00 0.00 0.00 89 1015.1
20260508071612 42 213 0.0 0.0 0.00 0.00 0.00 89 1015.1
20260508071338 42 213 0.0 0.0 0.00 0.00 0.00 89 1015.1
20260508070613 42 213 0.0 0.0 0.00 0.00 0.00 89 1015.1
20260508070105 41 213 0.0 0.0 0.00 0.00 0.00 89 1015.2
20260508065604 42 213 0.0 0.0 0.00 0.00 0.00 89 1015.3
20260508065104 42 213 0.0 0.0 0.00 0.00 0.00 89 1015.3
20260508064835 42 213 0.0 0.0 0.00 0.00 0.00 89 1015.4
20260508064102 42 213 0.0 0.0 0.00 0.00 0.00 89 1015.4
20260508063605 42 213 0.0 0.0 0.00 0.00 0.00 89 1015.4
20260508063324 42 213 0.0 0.0 0.00 0.00 0.00 89 1015.4
20260508062556 42 213 0.0 0.0 0.00 0.00 0.00 89 1015.4
20260508062100 42 213 0.0 0.0 0.00 0.00 0.00 89 1015.5
20260508061812 42 213 0.0 0.0 0.00 0.00 0.00 89 1015.5